Location: ?
(35.4064°N, 139.3593°E)
Time: 12:49:38
(UTC+00:00)

Cosmos 1420 Rocket - Pass Details

Date: 18 April 2024
Orbit: 752 x 779 km, 74.0° (Epoch: 18 May)

Event Time Altitude Azimuth Distance (km) Brightness Sun altitude
Rises 18:07:16 0° 338° (NNW) 3,243 7.4 -22.7°
Reaches altitude 10° 18:09:40 10° 335° (NNW) 2,317 6.6 -22.3°
Maximum altitude 18:14:50 60° 256° (WSW) 882 4.0 -21.5°
Enters shadow 18:17:14 31° 189° (S) 1,328 4.9 -21.0°
